Location: Unspecified
(51.5147°N, 7.4673°E)
Time: 19:43:42
(UTC+01:00)

SR - All Passes

Search period start: 18 February 2026 00:00
Search period end: 28 February 2026 00:00
Orbit: 574 x 847 km, 66.7° (Epoch: 17 February)

Date Brightness Start Highest point End Pass type
(mag) Time Alt. Az. Time Alt. Az. Time Alt. Az.
18 Feb - 03:56:00 10° SE 03:58:08 14° ESE 04:00:20 10° ENE visible
18 Feb - 05:34:46 10° SW 05:39:02 89° NNW 05:43:34 10° NE visible
18 Feb - 07:17:53 10° W 07:21:21 22° NNW 07:24:59 10° NNE daylight
18 Feb - 09:02:38 10° NNW 09:04:45 13° N 09:06:55 10° NNE daylight
18 Feb - 10:45:03 10° NNW 10:48:19 18° NNE 10:51:45 10° ENE daylight
18 Feb - 12:26:17 10° NNW 12:31:03 50° NE 12:36:10 10° ESE daylight
18 Feb - 14:08:06 10° NW 14:12:38 35° WSW 14:17:29 10° S daylight
19 Feb - 04:40:11 10° S 04:44:12 43° ESE 04:48:27 10° NE visible
19 Feb - 06:22:00 10° WSW 06:25:58 34° NW 06:30:11 10° NNE visible
19 Feb - 08:06:30 10° NW 08:09:01 15° NNW 08:11:38 10° NNE daylight
19 Feb - 09:50:06 10° NNW 09:52:40 14° NNE 09:55:19 10° NE daylight
19 Feb - 11:31:29 10° NNW 11:35:48 31° NE 11:40:24 10° E daylight
19 Feb - 13:12:55 10° NW 13:17:51 67° SW 13:23:09 10° SSE daylight
19 Feb - 14:56:35 10° W 14:58:46 13° WSW 15:01:00 10° SW daylight
20 Feb - 03:46:27 10° SSE 03:49:36 21° ESE 03:52:53 10° ENE visible
20 Feb - 05:26:33 10° SW 05:30:47 63° NW 05:35:19 10° NE visible
20 Feb - 07:10:13 10° WNW 07:13:23 19° NNW 07:16:42 10° NNE daylight
20 Feb - 08:54:46 10° NNW 08:56:55 13° N 08:59:07 10° NNE daylight
20 Feb - 10:36:42 10° NNW 10:40:22 21° NNE 10:44:15 10° ENE daylight
20 Feb - 12:17:57 10° NW 12:22:52 68° NE 12:28:11 10° SE daylight
20 Feb - 14:00:09 10° WNW 14:04:14 25° WSW 14:08:34 10° SSW daylight
21 Feb - 04:31:37 10° SSW 04:35:50 65° SE 04:40:19 10° NE visible
21 Feb - 06:14:09 10° W 06:17:53 27° NNW 06:21:52 10° NNE visible
21 Feb - 07:58:52 10° NW 08:01:10 13° N 08:03:31 10° NNE daylight
21 Feb - 09:41:49 10° NNW 09:44:47 16° NNE 09:47:51 10° NE daylight
21 Feb - 11:23:07 10° NNW 11:27:43 39° NE 11:32:40 10° ESE daylight
21 Feb - 13:04:43 10° NW 13:09:32 48° WSW 13:14:42 10° SSE daylight
22 Feb - 03:37:23 10° S 03:41:07 30° ESE 03:45:02 10° NE visible
22 Feb - 05:18:27 10° WSW 05:22:36 45° NW 05:27:02 10° NNE visible
22 Feb - 07:02:36 10° WNW 07:05:28 16° NNW 07:08:26 10° NNE daylight
22 Feb - 08:46:44 10° NNW 08:49:04 13° N 08:51:30 10° NE daylight
22 Feb - 10:28:20 10° NNW 10:32:23 26° NNE 10:36:42 10° E daylight
22 Feb - 12:09:39 10° NW 12:14:39 89° WSW 12:20:02 10° SE daylight
22 Feb - 13:52:23 10° WNW 13:55:47 18° WSW 13:59:19 10° SSW daylight
23 Feb - 02:44:18 10° SE 02:46:38 14° ESE 02:48:59 10° ENE visible
23 Feb - 04:23:15 10° SW 04:27:32 86° NW 04:32:07 10° NE visible
23 Feb - 06:06:25 10° W 06:09:53 22° NNW 06:13:33 10° NNE visible
23 Feb - 07:51:07 10° NNW 07:53:19 13° N 07:55:34 10° NNE daylight
23 Feb - 09:33:30 10° NNW 09:36:53 18° NNE 09:40:24 10° ENE daylight
23 Feb - 11:14:46 10° NNW 11:19:35 52° NE 11:24:47 10° ESE daylight
23 Feb - 12:56:37 10° NW 13:01:11 34° WSW 13:06:01 10° S daylight
24 Feb - 03:28:37 10° SSW 03:32:41 45° ESE 03:37:00 10° NE visible
24 Feb - 05:10:30 10° WSW 05:14:29 34° NW 05:18:43 10° NNE visible
24 Feb - 06:55:01 10° NW 06:57:34 15° NNW 07:00:14 10° NNE visible
24 Feb - 08:38:33 10° NNW 08:41:13 15° NNE 08:43:59 10° NE daylight
24 Feb - 10:19:56 10° NNW 10:24:21 32° NE 10:29:02 10° E daylight
24 Feb - 12:01:25 10° NW 12:06:22 66° WSW 12:11:44 10° SSE daylight
24 Feb - 13:45:11 10° W 13:47:16 12° WSW 13:49:24 10° SW daylight
25 Feb - 02:34:49 10° SSE 02:38:05 21° ESE 02:41:28 10° ENE visible
25 Feb - 04:15:02 10° SW 04:19:17 61° NW 04:23:51 10° NE visible
25 Feb - 05:58:44 10° WNW 06:01:55 19° NNW 06:05:15 10° NNE visible
25 Feb - 07:43:13 10° NNW 07:45:28 13° N 07:47:47 10° NNE daylight
25 Feb - 09:25:09 10° NNW 09:28:55 22° NNE 09:32:54 10° ENE daylight
25 Feb - 11:06:26 10° NW 11:11:24 70° NE 11:16:46 10° SE daylight
25 Feb - 12:48:39 10° WNW 12:52:45 25° WSW 12:57:05 10° SSW daylight
26 Feb - 03:20:04 10° SSW 03:24:19 68° SE 03:28:51 10° NE visible
26 Feb - 05:02:39 10° W 05:06:25 27° NNW 05:10:24 10° NNE visible
26 Feb - 06:47:20 10° NW 06:49:42 14° N 06:52:08 10° NNE visible
26 Feb - 08:30:16 10° NNW 08:33:20 16° NNE 08:36:31 10° ENE daylight
26 Feb - 10:11:34 10° NNW 10:16:15 41° NE 10:21:16 10° ESE daylight
26 Feb - 11:53:12 10° NW 11:58:03 47° WSW 12:03:14 10° SSE daylight
27 Feb - 02:25:48 10° S 02:29:35 32° ESE 02:33:35 10° NE visible
27 Feb - 04:06:56 10° WSW 04:11:06 44° NW 04:15:34 10° NNE visible
27 Feb - 05:51:07 10° WNW 05:53:59 16° NNW 05:56:59 10° NNE visible
27 Feb - 07:35:10 10° NNW 07:37:37 14° N 07:40:09 10° NE daylight
27 Feb - 09:16:46 10° NNW 09:20:55 26° NNE 09:25:20 10° E daylight
27 Feb - 10:58:08 10° NW 11:03:10 87° SW 11:08:36 10° SE daylight
27 Feb - 12:40:55 10° WNW 12:44:17 18° WSW 12:47:47 10° SSW daylight
